Regional Weather Roundup
Issued by NWS Cleveland, OH

Home | Current Version | Previous Version | Text Only | Print | Product List | Glossary Off
Versions: 1 2 3 4 5 6 7 8 9 10 11 12 13 14 15 16 17 18 19 20 21 22 23 24 25 26 27 28 29 30 31 32 33 34 35 36 37 38 39 40 41 42 43 44 45 46 47 48 49 50

000
ASUS41 KCLE 251012
RWRCLE
OHIO REGIONAL WEATHER ROUNDUP
NATIONAL WEATHER SERVICE WILMINGTON, OH
600 AM EDT SAT MAR 25 2017

NOTE: "FAIR" INDICATES FEW OR NO CLOUDS BELOW 12,000 FEET WITH NO
SIGNIFICANT WEATHER AND/OR OBSTRUCTIONS TO VISIBILITY.

OHZ001>008-015>018-024>027-034-035-043-044-251100-
   NORTHWEST OHIO

CITY           SKY/WX    TMP DP  RH WIND       PRES   REMARKS
DEFIANCE       CLOUDY    55  50  83 CALM      30.05R
FINDLAY        CLOUDY    61  51  70 SW9       30.05R
TOLEDO EXPRESS MOCLDY    46  40  79 E6        30.06F
TOLEDO EXEC    FAIR      43  40  89 E6        30.08F
LIMA           FAIR      60  53  77 S10       30.06S
$$

OHZ009>014-019>023-028>033-038-089-251100-
   NORTHEAST OHIO

CITY           SKY/WX    TMP DP  RH WIND       PRES   REMARKS
CLE-HOPKINS    FAIR      55  47  74 CALM      30.10R
CLE-LAKEFRONT  MOCLDY    43  39  86 N6        30.08R
CUY CO. ARPT   NOT AVBL
LORAIN-ELYRIA  FAIR      50  45  83 CALM      30.08R
ASHTABULA      CLOUDY    52  48  86 CALM      30.09R
AKRON-CANTON   MOCLDY    60  51  72 SW7       30.11R
WOOSTER        FAIR      58  51  78 S7        30.11R
MANSFIELD      FAIR      59  52  77 SW12G21   30.10R
YOUNGSTOWN     CLOUDY    61  51  70 SW7       30.10R
$$

OHZ042-051>053-060>062-070>072-077>081-251100-
  SOUTHWEST OHIO

CITY           SKY/WX    TMP DP  RH WIND       PRES   REMARKS
CINC-COVINGTON MOCLDY    58  50  75 S10       30.10S
CINC-LUNKEN    FAIR      59  51  75 VRB3      30.11S
HAMILTON       FAIR      60  51  72 SE3       30.10S
DAYTON         CLOUDY    61  50  67 S14       30.09S
WRIGHT-PAT AFB FAIR      61  51  70 S9        30.09S
DAYTON GENERAL FAIR      59  50  72 S8        30.09S
WILMINGTON     FAIR      58  50  75 S12       30.11S
$$

OHZ036-037-039>041-045>050-054>059-063>069-073>076-082>088-251100-
  CENTRAL AND SOUTHEAST OHIO

CITY           SKY/WX    TMP DP  RH WIND       PRES   REMARKS
COLUMBUS       CLOUDY    62  50  64 S7        30.12R
OSU AIRPORT    FAIR      59  51  75 S8        30.11R
BOLTON FIELD   FAIR      59  51  75 S9        30.12R
RICKENBACK AFB FAIR      59  50  72 S8        30.11S
NEWARK         FAIR      60  50  69 SW5       30.12R
MARION         CLOUDY    57  51  80 S9        30.09S
LANCASTER      FAIR      63  50  62 SW6       30.13R
ZANESVILLE     FAIR      61  49  64 S7        30.14R
NEW PHILLY     FAIR      64  51  62 VRB3      30.14R
$$




USA.gov is the U.S. government's official web portal to all federal, state and local government web resources and services.